Regional Weather Roundup
Issued by NWS

Home | Current Version | Previous Version | Graphics & Text | Print | Product List | Glossary Off
Versions: 1 2 3 4 5 6 7 8 9 10 11 12 13 14 15 16 17 18 19 20 21 22 23 24 25 26 27 28 29 30 31 32 33 34 35 36 37 38 39 40 41 42 43 44 45 46 47 48 49 50

000
ASUS43 KMPX 011910
RWRMN
WEATHER ROUNDUP FOR MINNESOTA
NATIONAL WEATHER SERVICE TWIN CITIES/CHANHASSEN MN
100 PM CST SUN MAR 01 2015


NOTE: "FAIR" INDICATES FEW OR NO CLOUDS BELOW 12,000 FEET WITH NO
SIGNIFICANT WEATHER AND/OR OBSTRUCTIONS TO VISIBILITY. N/A MEANS
CURRENT SKY AND/OR WEATHER CONDITIONS ARE NOT AVAILABLE.

MNZ060>063-068>070-012000-
   Twin Cities Metro

CITY           SKY/WX    TMP DP  RH WIND       PRES   REMARKS
BLAINE         MOSUNNY   27   9  46 W13G18      N/A  WCI  16
EDEN PRAIRIE   SUNNY     25   7  46 W12G20    30.25F WCI  14
LAKE ELMO      FAIR      25   9  50 W9        30.24F WCI  15
$$
MNZ001>005-007-008-013>017-022>024-027-028-012000-
   Northwest Minnesota

CITY           SKY/WX    TMP DP  RH WIND       PRES   REMARKS
BEMIDJI        MOSUNNY   17   6  64 W12       30.13S WCI   4
THIEF RVR FALL CLOUDY    10   7  85 W10       30.18R WCI  -3
FOSSTON        LGT SNOW  16   3  57 SW9       30.17S WCI   4
DETROIT LAKES  MIX PCPN  18  10  73 W6        30.19S WCI   9
MAHNOMEN       FLURRIES  15   9  78 W12       30.19R WCI   1
$$
MNZ006-009>011-018-025>026-012000-
   North Central Minnesota

CITY           SKY/WX    TMP DP  RH WIND       PRES   REMARKS
BAUDETTE       SUNNY     15   3  59 W9        30.10S WCI   3
FLAG ISLAND    CLOUDY    18   9  68 NW10      30.09S WCI   6
BIG FORK       MOSUNNY   18   5  57 W12G18    30.10S WCI   5
LONGVILLE      MOSUNNY   21   7  53 W12G21    30.13F WCI   9
GRAND RAPIDS   CLOUDY    18   5  57 W16       30.11S WCI   3
ORR            PTSUNNY   19   3  49 SW12G17   30.05S WCI   7
COOK           MOSUNNY   18   7  62 W15G21    30.07F WCI   3
WALKER         MOCLDY    19   6  56 W13G18    30.12F WCI   6
$$
MNZ012-019>021-037-012000-
   Northeast Minnesota

CITY           SKY/WX    TMP DP  RH WIND       PRES   REMARKS
EVELETH        SUNNY     21   5  49 W15       30.09S WCI   8
DULUTH HARBOR  SUNNY     25   9  50 W16       30.14F WCI  12
$$
MNZ029>031-032-039>041-046>048-054>057-064-012000-
   West Central Minnesota

CITY           SKY/WX    TMP DP  RH WIND       PRES   REMARKS
FERGUS FALLS   CLOUDY    21   9  58 W12       30.25F WCI   9
ALEXANDRIA     MOSUNNY   20   7  57 W15       30.20F WCI   6
WADENA         PTSUNNY   18   7  62 W12       30.17F WCI   5
APPLETON       SUNNY     28  12  50 W20       30.26F WCI  15
BENSON         PTSUNNY   28  12  50 NW16G23   30.24S WCI  17
MADISON        SUNNY     28  14  54 W18G24    30.25F WCI  16
WILLMAR        FAIR      27  12  54 W16       30.26F WCI  14
$$
MNZ033>034-036-042>043-049>051-058-059-012000-
   Central Minnesota

CITY           SKY/WX    TMP DP  RH WIND       PRES   REMARKS
SAUK CENTRE    FAIR      22   8  56 W16G23    30.21F WCI   8
BRAINERD       MOSUNNY   20   6  55 W12       30.17F WCI   8
LONG PRAIRIE   FAIR      21   7  53 SW14      30.20F WCI   8
MAPLE LAKE     SUNNY     24  11  56 W9        30.25F WCI  15
$$
MNZ037-044-045-052-053-012000-
   East Central Minnesota

CITY           SKY/WX    TMP DP  RH WIND       PRES   REMARKS
MORA           MOSUNNY   23   5  46 W14G21    30.21F WCI  11
RUSH CITY      SUNNY     22   7  52 W8G18     30.22F WCI  12
MOOSE LAKE     SUNNY     23   5  46 W15G22    30.13F WCI  10
HINCKLEY       FAIR      23   9  54 W16       30.18F WCI  10
CLOQUET        SUNNY     19   3  49 W16       30.11F WCI   5
$$
MNZ071>073-080-081-089-090-097-098-012000-
   Southwest Minnesota

CITY           SKY/WX    TMP DP  RH WIND       PRES   REMARKS
MARSHALL       SUNNY     27  10  50 W24       30.29S WCI  12
WORTHINGTON    SUNNY     32  12  43 W20       30.31S WCI  20
SLAYTON        SUNNY     26  11  54 W17G26    30.27F WCI  12
$$
MNZ065>067-074>077-082>085-091>093-012000-
   South Central Minnesota

CITY           SKY/WX    TMP DP  RH WIND       PRES   REMARKS
MANKATO        SUNNY     21   7  53 W13       30.29F WCI   9
ST JAMES       SUNNY     27  12  54 W10       30.31F WCI  17
FAIRMONT       SUNNY     27  10  50 W12G18    30.29F WCI  16
GLENCOE        SUNNY     24  12  60 W13       30.27F WCI  12
FARIBAULT      SUNNY     21   9  58 W14       30.27F WCI   8
OWATONNA       SUNNY     19   9  63 W13       30.27F WCI   7
ALBERT LEA     SUNNY     21   9  58 NW13      30.27F WCI   9
$$
MNZ078>079-086>088-094>096-012000-
   Southeast Minnesota

CITY           SKY/WX    TMP DP  RH WIND       PRES   REMARKS
WINONA         MOSUNNY   28  12  50 W12G20    30.28F WCI  18
AUSTIN         SUNNY     19   9  63 W13G25    30.27F WCI   7
PRESTON        MOSUNNY   19   9  64 W15       30.26F WCI   5
$$
ABBREVIATIONS USED IN REMARKS
   TC - TEMPERATURES IN CELSIUS
  WCI - WIND CHILL INDEX
   HX - HEAT INDEX
  VSB - VISIBILITY
$$


USA.gov is the U.S. government's official web portal to all federal, state and local government web resources and services.